Regional Weather Roundup
Issued by NWS

Home | Current Version | Previous Version | Text Only | Print | Product List | Glossary Off
Versions: 1 2 3 4 5 6 7 8 9 10 11 12 13 14 15 16 17 18 19 20 21 22 23 24 25 26 27 28 29 30 31 32 33 34 35 36 37 38 39 40 41 42 43 44 45 46 47 48 49 50

000
ASUS43 KFSD 302102
RWRSD

WEATHER ROUNDUP FOR SOUTH DAKOTA
NATIONAL WEATHER SERVICE SIOUX FALLS SD
400 PM CDT MON MAY 30 2016

NOTE: "FAIR" INDICATES FEW OR NO CLOUDS BELOW 12,000 FEET WITH NO
SIGNIFICANT WEATHER AND/OR OBSTRUCTIONS TO VISIBILITY.


SDZ001>005-009-010-012>017-302200-
NORTHWEST AND NORTH CENTRAL SOUTH DAKOTA

CITY           SKY/WX    TMP DP  RH WIND       PRES   REMARKS
BUFFALO          N/A     62  51  67 NW15      29.83F
FAITH            N/A     75  52  44 SW15      29.76F
MOBRIDGE       CLOUDY    64  57  78 E21G26    29.73F
$$

SDZ012>016-024>037-041>051-057-063-072>074-302200-
SOUTHWEST AND SOUTH CENTRAL SOUTH DAKOTA

CITY           SKY/WX    TMP DP  RH WIND       PRES   REMARKS
RAPID CTY ARPT CLOUDY    67  52  58 NW28G41   29.87R
PIERRE         SUNNY     83  57  41 S21       29.73F
CUSTER         CLOUDY    68  44  42 NW12G24   29.94F
ELLSWORTH AFB  LGT RAIN  63  54  71 NW30G38   29.84
PHILIP         SUNNY     83  50  31 S16       29.73F
PINE RIDGE     CLOUDY    82  42  24 W16G26    29.82F
WINNER         FAIR      83  56  39 S14G24    29.79F
$$

SDZ004>011-016>023-039-040-302200-
NORTHEAST SOUTH DAKOTA

CITY           SKY/WX    TMP DP  RH WIND       PRES   REMARKS
ABERDEEN       CLOUDY    85  53  33 SE23G30   29.78F
WATERTOWN      PTSUNNY   81  51  35 SE20G26   29.85F
BROOKINGS      MOSUNNY   79  58  48 S14       29.87F
SISSETON         N/A     84  50  30 S14       29.82F
$$

SDZ017-020-022-023-036>040-048>070-302200-
SOUTHEAST SOUTH DAKOTA

CITY           SKY/WX    TMP DP  RH WIND       PRES   REMARKS
SIOUX FALLS    CLOUDY    80  60  50 S12       29.86F
HURON          PTSUNNY   79  62  56 S18G24    29.81F
MITCHELL       MOSUNNY   81  62  52 S12       29.83F
YANKTON        PTSUNNY   84  55  37 S12G17    29.82F
$$

ABBREVIATIONS USED IN REMARKS
   TC - TEMPERATURE IN CELSIUS
  WCI - WIND CHILL INDEX
   HX - HEAT INDEX
  VSB - VISIBILITY





USA.gov is the U.S. government's official web portal to all federal, state and local government web resources and services.